Location: Montreal
(45.5000°N, 73.5830°W)
Time: 06:42:18
(UTC-05:00)

Envisat - Visible Passes

Search period start: 23 January 2018 00:00
Search period end: 02 February 2018 00:00
Orbit: 764 x 766 km, 98.2° (Epoch: 23 January)

Date Brightness Start Highest point End Pass type
(mag) Time Alt. Az. Time Alt. Az. Time Alt. Az.
23 Jan 3.6 18:36:31 33° ENE 18:36:31 33° ENE 18:40:45 10° N visible
23 Jan 4.8 20:16:42 28° WNW 20:16:42 28° WNW 20:19:48 10° NNW visible
24 Jan 4.4 17:59:05 17° ENE 17:59:53 17° ENE 18:03:08 10° NNE visible
24 Jan 3.4 19:39:16 57° NW 19:39:16 57° NW 19:43:26 10° NNW visible
25 Jan 3.0 19:01:50 55° ENE 19:01:50 55° ENE 19:06:38 10° N visible
25 Jan 5.4 20:42:01 19° WNW 20:42:01 19° WNW 20:44:44 10° NW visible
26 Jan 3.8 18:24:23 26° E 18:25:11 27° ENE 18:29:26 10° N visible
26 Jan 4.2 20:04:34 40° W 20:04:34 40° W 20:08:50 10° NNW visible
27 Jan 4.6 17:46:56 12° E 17:48:54 14° ENE 17:51:32 10° NNE visible
27 Jan 2.9 19:27:07 87° SSW 19:27:12 88° WSW 19:32:19 10° NNW visible
27 Jan 5.9 21:07:18 11° W 21:07:18 11° W 21:08:34 10° WNW visible
28 Jan 3.2 18:49:39 40° E 18:50:34 44° ENE 18:55:24 10° N visible
28 Jan 5.0 20:29:50 25° W 20:29:50 25° W 20:33:57 10° NW visible
29 Jan 4.1 18:12:11 18° E 18:14:09 23° ENE 18:18:04 10° NNE visible
29 Jan 3.7 19:52:22 50° WSW 19:52:50 52° W 19:57:48 10° NNW visible
30 Jan 4.8 17:36:14 10° ENE 17:37:56 12° NE 17:39:38 10° NE visible
30 Jan 2.8 19:14:54 53° SE 19:16:04 75° ENE 19:21:10 10° N visible
30 Jan 5.7 20:55:05 14° W 20:55:40 15° W 20:58:26 10° NW visible
31 Jan 3.5 18:37:24 25° ESE 18:39:31 36° ENE 18:44:09 10° N visible
31 Jan 4.6 20:17:35 28° WSW 20:18:34 31° W 20:23:04 10° NNW visible
01 Feb 4.3 17:59:55 11° ESE 18:03:09 19° ENE 18:06:37 10° NNE visible
01 Feb 3.3 19:40:06 43° SSW 19:41:40 65° WSW 19:46:44 10° NNW visible
